| time (UTC) | temp F | wind direction | speed MPH | gust MPH | rain 1hr in | rain 24hr in | rain mn in | humidity % | barometer mb |
| 20260510014558 | 53 | 205 | 0.0 | 0.0 | 0.00 | 0.00 | 0.17 | 57 | 1005.8 |
| 20260510013047 | 53 | 205 | 0.0 | 0.0 | 0.00 | 0.00 | 0.17 | 57 | 1005.7 |
| 20260510011536 | 54 | 205 | 0.0 | 0.0 | 0.00 | 0.00 | 0.17 | 54 | 1005.5 |
| 20260510010033 | 54 | 205 | 0.0 | 0.0 | 0.00 | 0.00 | 0.17 | 53 | 1005.4 |
| 20260510004558 | 55 | 360 | 1.0 | 0.0 | 0.00 | 0.00 | 0.17 | 50 | 1005.3 |
| 20260510003100 | 56 | 360 | 1.0 | 0.0 | 0.00 | 0.00 | 0.17 | 47 | 1005.2 |
| 20260510001531 | 58 | 353 | 0.0 | 0.0 | 0.00 | 0.00 | 0.17 | 45 | 1005.0 |
| 20260510000042 | 59 | 354 | 0.0 | 0.0 | 0.00 | 0.00 | 0.17 | 42 | 1004.8 |
| 20260509234530 | 60 | 212 | 1.0 | 0.0 | 0.00 | 0.00 | 0.17 | 40 | 1004.7 |
| 20260509233053 | 61 | 227 | 1.0 | 0.0 | 0.00 | 0.00 | 0.17 | 38 | 1004.7 |
| 20260509231546 | 61 | 206 | 2.0 | 0.0 | 0.00 | 0.00 | 0.17 | 37 | 1004.5 |
| 20260509230032 | 62 | 215 | 2.0 | 0.0 | 0.00 | 0.00 | 0.17 | 36 | 1004.6 |
| 20260509224551 | 63 | 222 | 1.0 | 0.0 | 0.00 | 0.00 | 0.17 | 33 | 1004.5 |
| 20260509223054 | 63 | 226 | 2.0 | 0.0 | 0.00 | 0.00 | 0.17 | 31 | 1004.7 |
| 20260509221547 | 63 | 229 | 2.0 | 0.0 | 0.00 | 0.00 | 0.17 | 32 | 1004.5 |
| 20260509220053 | 63 | 246 | 2.0 | 0.0 | 0.00 | 0.00 | 0.17 | 34 | 1004.7 |
| 20260509214609 | 61 | 178 | 2.0 | 0.0 | 0.00 | 0.00 | 0.17 | 40 | 1004.8 |
| 20260509213106 | 60 | 322 | 1.0 | 0.0 | 0.00 | 0.00 | 0.17 | 46 | 1005.0 |
| 20260509211611 | 59 | 322 | 0.0 | 0.0 | 0.00 | 0.00 | 0.17 | 46 | 1005.3 |
| 20260509210048 | 59 | 322 | 2.0 | 0.0 | 0.00 | 0.00 | 0.17 | 46 | 1005.3 |
| 20260509204552 | 59 | 322 | 0.0 | 0.0 | 0.00 | 0.00 | 0.17 | 47 | 1005.2 |
| 20260509203040 | 58 | 322 | 0.0 | 0.0 | 0.00 | 0.00 | 0.17 | 47 | 1005.2 |
| 20260509201601 | 58 | 322 | 0.0 | 0.0 | 0.00 | 0.00 | 0.17 | 49 | 1005.4 |
| 20260509194603 | 59 | 326 | 2.0 | 0.0 | 0.00 | 0.00 | 0.17 | 48 | 1005.8 |
| 20260509193035 | 58 | 200 | 2.0 | 0.0 | 0.00 | 0.00 | 0.17 | 53 | 1006.0 |
| 20260509191544 | 58 | 208 | 2.0 | 0.0 | 0.00 | 0.00 | 0.17 | 56 | 1006.2 |
| 20260509190037 | 57 | 181 | 3.0 | 0.0 | 0.00 | 0.00 | 0.17 | 58 | 1006.3 |
| 20260509184559 | 57 | 161 | 2.0 | 0.0 | 0.00 | 0.00 | 0.17 | 61 | 1006.2 |
| 20260509183033 | 55 | 186 | 2.0 | 0.0 | 0.00 | 0.00 | 0.17 | 61 | 1006.4 |
| 20260509181534 | 55 | 191 | 2.0 | 0.0 | 0.00 | 0.00 | 0.17 | 61 | 1006.6 |
| 20260509180032 | 55 | 202 | 1.0 | 0.0 | 0.00 | 0.00 | 0.17 | 61 | 1006.8 |
| 20260509174531 | 54 | 202 | 1.0 | 0.0 | 0.00 | 0.00 | 0.17 | 60 | 1006.8 |
| 20260509173039 | 54 | 202 | 1.0 | 0.0 | 0.00 | 0.00 | 0.17 | 60 | 1006.9 |
| 20260509171542 | 54 | 202 | 1.0 | 0.0 | 0.00 | 0.00 | 0.16 | 60 | 1006.8 |
| 20260509170112 | 54 | 202 | 0.0 | 0.0 | 0.00 | 0.00 | 0.15 | 59 | 1006.9 |
| 20260509164531 | 54 | 202 | 0.0 | 0.0 | 0.00 | 0.00 | 0.15 | 58 | 1006.8 |
| 20260509163052 | 54 | 202 | 2.0 | 0.0 | 0.00 | 0.00 | 0.13 | 57 | 1006.7 |
| 20260509161533 | 54 | 202 | 0.0 | 0.0 | 0.00 | 0.00 | 0.10 | 55 | 1007.0 |
| 20260509160117 | 54 | 202 | 1.0 | 0.0 | 0.00 | 0.00 | 0.07 | 54 | 1007.7 |
| 20260509154651 | 55 | 202 | 2.0 | 0.0 | 0.00 | 0.00 | 0.04 | 52 | 1007.8 |
| 20260509153047 | 55 | 200 | 2.0 | 0.0 | 0.00 | 0.00 | 0.03 | 52 | 1007.8 |
| 20260509151546 | 55 | 202 | 2.0 | 0.0 | 0.00 | 0.00 | 0.02 | 49 | 1007.7 |
| 20260509150118 | 56 | 161 | 1.0 | 0.0 | 0.00 | 0.00 | 0.01 | 51 | 1007.7 |
| 20260509144554 | 56 | 37 | 1.0 | 0.0 | 0.00 | 0.00 | 0.00 | 51 | 1007.5 |
| 20260509143046 | 55 | 37 | 0.0 | 0.0 | 0.00 | 0.00 | 0.00 | 51 | 1007.4 |
| 20260509141531 | 55 | 37 | 1.0 | 0.0 | 0.00 | 0.00 | 0.00 | 53 | 1007.3 |
| 20260509140032 | 55 | 37 | 2.0 | 0.0 | 0.00 | 0.00 | 0.00 | 53 | 1006.8 |
| 20260509134608 | 55 | 55 | 1.0 | 0.0 | 0.00 | 0.00 | 0.00 | 53 | 1006.8 |
| 20260509133104 | 55 | 56 | 0.0 | 0.0 | 0.00 | 0.00 | 0.00 | 55 | 1006.8 |
| 20260509131552 | 54 | 56 | 0.0 | 0.0 | 0.00 | 0.00 | 0.00 | 53 | 1006.9 |
| 20260509130052 | 54 | 56 | 0.0 | 0.0 | 0.00 | 0.00 | 0.00 | 54 | 1006.9 |
| 20260509124539 | 53 | 56 | 0.0 | 0.0 | 0.00 | 0.00 | 0.00 | 55 | 1007.1 |
| 20260509123037 | 53 | 56 | 0.0 | 0.0 | 0.00 | 0.00 | 0.00 | 54 | 1006.6 |
| 20260509121532 | 52 | 56 | 0.0 | 0.0 | 0.00 | 0.00 | 0.00 | 54 | 1006.7 |
| 20260509120108 | 52 | 56 | 1.0 | 0.0 | 0.00 | 0.00 | 0.00 | 55 | 1006.5 |
| 20260509114554 | 51 | 56 | 0.0 | 0.0 | 0.00 | 0.00 | 0.00 | 55 | 1006.7 |
| 20260509113041 | 51 | 56 | 0.0 | 0.0 | 0.00 | 0.00 | 0.00 | 55 | 1006.7 |
| 20260509111546 | 50 | 56 | 0.0 | 0.0 | 0.00 | 0.00 | 0.00 | 55 | 1006.6 |
| 20260509110107 | 50 | 56 | 0.0 | 0.0 | 0.00 | 0.00 | 0.00 | 54 | 1006.5 |
| 20260509104545 | 50 | 56 | 0.0 | 0.0 | 0.00 | 0.00 | 0.00 | 54 | 1006.4 |
| 20260509103030 | 49 | 56 | 0.0 | 0.0 | 0.00 | 0.00 | 0.00 | 55 | 1006.4 |
| 20260509101551 | 49 | 56 | 0.0 | 0.0 | 0.00 | 0.00 | 0.00 | 55 | 1005.9 |
| 20260509100043 | 49 | 56 | 0.0 | 0.0 | 0.00 | 0.00 | 0.00 | 55 | 1006.2 |
| 20260509094555 | 49 | 56 | 0.0 | 0.0 | 0.00 | 0.00 | 0.00 | 54 | 1006.2 |
| 20260509093031 | 49 | 56 | 0.0 | 0.0 | 0.00 | 0.00 | 0.00 | 54 | 1006.2 |
| 20260509091544 | 49 | 56 | 0.0 | 0.0 | 0.00 | 0.00 | 0.00 | 53 | 1006.3 |
| 20260509090030 | 49 | 56 | 0.0 | 0.0 | 0.00 | 0.00 | 0.00 | 52 | 1006.4 |
| 20260509084559 | 49 | 56 | 0.0 | 0.0 | 0.00 | 0.00 | 0.00 | 51 | 1006.6 |
| 20260509083046 | 49 | 56 | 0.0 | 0.0 | 0.00 | 0.00 | 0.00 | 50 | 1006.7 |
| 20260509081540 | 48 | 56 | 0.0 | 0.0 | 0.00 | 0.00 | 0.00 | 48 | 1006.8 |
| 20260509080052 | 49 | 56 | 0.0 | 0.0 | 0.00 | 0.00 | 0.00 | 47 | 1006.7 |
| 20260509074543 | 49 | 56 | 0.0 | 0.0 | 0.00 | 0.00 | 0.00 | 46 | 1006.9 |
| 20260509073045 | 50 | 56 | 0.0 | 0.0 | 0.00 | 0.00 | 0.00 | 45 | 1007.0 |
| 20260509071539 | 50 | 56 | 1.0 | 0.0 | 0.00 | 0.00 | 0.00 | 46 | 1007.0 |
| 20260509070104 | 50 | 56 | 0.0 | 0.0 | 0.00 | 0.00 | 0.00 | 47 | 1007.0 |
| 20260509064530 | 51 | 56 | 0.0 | 0.0 | 0.00 | 0.00 | 0.00 | 45 | 1006.9 |
| 20260509063041 | 52 | 56 | 0.0 | 0.0 | 0.00 | 0.00 | 0.00 | 45 | 1007.1 |
| 20260509061535 | 52 | 56 | 0.0 | 0.0 | 0.00 | 0.00 | 0.00 | 45 | 1007.3 |
| 20260509060054 | 52 | 56 | 1.0 | 0.0 | 0.00 | 0.00 | 0.00 | 44 | 1007.6 |
| 20260509054605 | 52 | 56 | 0.0 | 0.0 | 0.00 | 0.00 | 0.00 | 43 | 1007.4 |
| 20260509053034 | 52 | 56 | 0.0 | 0.0 | 0.00 | 0.00 | 0.00 | 43 | 1007.7 |
| 20260509051556 | 52 | 56 | 0.0 | 0.0 | 0.00 | 0.00 | 0.00 | 43 | 1007.8 |
| 20260509050052 | 53 | 56 | 0.0 | 0.0 | 0.00 | 0.00 | 0.00 | 41 | 1007.6 |
| 20260509044605 | 53 | 56 | 0.0 | 0.0 | 0.00 | 0.00 | 0.00 | 41 | 1007.7 |
| 20260509043034 | 54 | 55 | 1.0 | 0.0 | 0.00 | 0.00 | 0.00 | 41 | 1007.9 |
| 20260509041531 | 54 | 168 | 1.0 | 0.0 | 0.00 | 0.00 | 0.00 | 40 | 1007.8 |
| 20260509040108 | 54 | 175 | 0.0 | 0.0 | 0.00 | 0.00 | 0.00 | 38 | 1008.2 |
| 20260509034536 | 55 | 174 | 0.0 | 0.0 | 0.00 | 0.00 | 0.00 | 36 | 1008.1 |
| 20260509033051 | 55 | 179 | 1.0 | 0.0 | 0.00 | 0.00 | 0.00 | 33 | 1008.4 |
| 20260509031552 | 55 | 162 | 5.0 | 0.0 | 0.00 | 0.00 | 0.00 | 34 | 1008.5 |
| 20260509030039 | 54 | 282 | 0.0 | 0.0 | 0.00 | 0.00 | 0.00 | 39 | 1007.7 |
| 20260509024541 | 54 | 282 | 1.0 | 0.0 | 0.00 | 0.00 | 0.00 | 35 | 1007.8 |
| 20260509023033 | 54 | 282 | 1.0 | 0.0 | 0.00 | 0.00 | 0.00 | 33 | 1007.8 |
| 20260509021531 | 54 | 282 | 1.0 | 0.0 | 0.00 | 0.00 | 0.00 | 37 | 1007.9 |
| 20260509020047 | 55 | 282 | 0.0 | 0.0 | 0.00 | 0.00 | 0.00 | 32 | 1008.0 |